Home > Weather > Halden > Past weeks

Flag for Norway Weather for the Past 2 Weeks in Halden, Norway

Now
39 °F

Partly cloudy.


Feels Like: 35 °F
Forecast: 38 / 44 °F
Wind: 6 mph from Southwest

Location: Rygge

Current Time: Apr 29, 2016 at 6:36:34 AM

Latest Report: Apr 29, 2016 at 5:50 AM


Visibility: N/A

Pressure: 29.65 "Hg

Humidity: 81%

Dew Point: 34 °F

Location of HaldenLocation

Historic Weather in Halden — Graph

°F

Halden Temperature Yesterday

Maximum temperature yesterday: 48 °F (at 2:20 PM)
Minimum temperature yesterday: 34 °F (at 2:50 AM)
Average temperature yesterday: 41 °F

High & Low Weather Summary for the Past Weeks

 TemperatureHumidityPressure
High57 °F (Apr 19, 4:20 PM)100% (Apr 16, 10:50 PM)30.24 "Hg (Apr 16, 10:50 PM)
Low28 °F (Apr 23, 5:20 AM)24% (Apr 22, 4:50 PM)29.33 "Hg (Apr 17, 3:20 AM)
Average43 °F65%29.74 "Hg
* Reported Apr 14 5:20 AM — Apr 29 5:20 AM, Halden, Weather by CustomWeather, © 2016

Note: Actual official high and low records may vary slightly from our data, if they occured in-between our weather recording intervals... More about our weather records

Advertising

Halden Weather History for the Previous 24 Hours

Scroll right to see more
 ConditionsComfort  
Time TempWeatherWind HumidityBarometerVisibility
5:20 AM
Fri, Apr 29
39 °FChilly.5 mph81%29.65 "HgN/A
4:20 AM39 °FLight rain. Passing clouds.10 mph81%29.65 "HgN/A
3:50 AM37 °FLight rain. Fog.6 mph93%29.65 "HgN/A
2:50 AM37 °FLight rain. Partly cloudy.12 mph87%29.68 "HgN/A
2:20 AM37 °FLight rain. Passing clouds.9 mph93%29.68 "Hg4 mi
1:50 AM37 °FDrizzle. Mostly cloudy.12 mph93%29.68 "Hg3 mi
1:20 AM39 °FLight rain. Fog.9 mph81%29.71 "Hg3 mi
12:50 AM39 °FLight rain. Passing clouds.14 mph81%29.71 "Hg4 mi
12:20 AM41 °FPassing clouds.12 mph76%29.71 "HgN/A
11:50 PM
Thu, Apr 28
41 °FPassing clouds.6 mph76%29.74 "HgN/A
10:50 PM41 °FPassing clouds.7 mph76%29.77 "HgN/A
10:20 PM41 °FPassing clouds.3 mph76%29.77 "HgN/A
9:50 PM41 °FPassing clouds.9 mph76%29.80 "HgN/A
9:20 PM43 °FPartly sunny.8 mph71%29.80 "HgN/A
8:50 PM43 °FPartly sunny.6 mph71%29.80 "HgN/A
8:20 PM45 °FBroken clouds.7 mph71%29.83 "HgN/A
7:50 PM43 °FSprinkles. Partly sunny.5 mph81%29.83 "HgN/A
7:20 PM45 °FPartly sunny.2 mph71%29.83 "HgN/A
6:50 PM43 °FScattered showers. More clouds than sun.7 mph81%29.83 "HgN/A
6:20 PM45 °FOvercast.2 mph66%29.83 "HgN/A
5:50 PM45 °FLight rain. Partly sunny.9 mph71%29.86 "HgN/A
5:20 PM46 °FScattered clouds.5 mph62%29.86 "HgN/A
4:50 PM46 °FBroken clouds.5 mph62%29.86 "HgN/A
4:20 PM46 °FBroken clouds.8 mph66%29.86 "HgN/A
3:50 PM43 °FBroken clouds.12 mph81%29.86 "HgN/A
2:50 PM48 °FScattered showers. Broken clouds.9 mph58%29.86 "HgN/A
2:20 PM48 °FPartly sunny.7 mph58%29.86 "HgN/A
1:50 PM46 °FPartly sunny.10 mph62%29.89 "HgN/A
1:20 PM46 °FPartly sunny.13 mph62%29.89 "HgN/A
12:50 PM46 °FPartly sunny.13 mph66%29.89 "HgN/A
12:20 PM45 °FPartly sunny.12 mph66%29.89 "HgN/A
11:50 AM46 °FBroken clouds.12 mph66%29.89 "HgN/A
11:20 AM45 °FBroken clouds.10 mph71%29.89 "HgN/A
10:50 AM43 °FBroken clouds.12 mph76%29.89 "HgN/A
10:20 AM43 °FPartly sunny.12 mph76%29.89 "HgN/A
9:50 AM41 °FPartly sunny.14 mph81%29.89 "HgN/A
9:20 AM41 °FPartly sunny.13 mph81%29.89 "HgN/A
7:20 AM36 °FBroken clouds.6 mph93%29.89 "HgN/A
6:50 AM36 °FBroken clouds.9 mph87%29.86 "HgN/A
Weather by CustomWeather, © 2016

See weather overviewHow to use our weather pages